sat.trackr.live / text

‹ back to catalog

COSMOS 2567

NORAD 55978 · 2023-040A

PAYLOAD ACTIVE UNKNOWN

§ Identity

Operator
Country
CIS
Launch date
2023-03-23
Launch site
PLMSC
Launch vehicle
Mass (kg)
RCS (m²)

External: N2YO · Heavens-Above · Gunter

§ Orbital elements

Epoch: 2026-09-21T23:56:08.494656Z

Period
94.40 min
Inclination
97.3419°
Eccentricity
0.0003253
Mean motion
15.25408028 rev/d
Perigee alt
487.3 km
Apogee alt
491.8 km
Semi-major
6,867.7 km
B*
9.5446e-5
RAAN
192.0106°
Arg perigee
95.2641°
Mean anomaly
264.8969°
Rev number
19,481

§ Raw data

COSMOS 25671 55978U 23040A   26264.99732054  .00002340  00000+0  95446-4 0  99922 55978  97.3419 192.0106 0003253  95.2641 264.8969 15.25408028194810

JSON: /api/v1/satellites/55978 · /tle

For live sub-satellite position, see the globe view (requires WebGL).

§ Visibility from observer

Set your observer location to see the next 7 days of passes ≥ 10°. The values pass through the URL so the page stays shareable.

No JS? Fill the form by hand. The geolocation button needs JavaScript.